Location: Chervonnoye
(48.6000°N, 34.4000°E)
Time: 01:38:31
(UTC+00:00)

NOAA 15 - Pass Details

Date: 30 November 2021
Orbit: 797 x 812 km, 98.7° (Epoch: 17 January)

Event Time Altitude Azimuth Distance (km) Brightness Sun altitude
Rises 17:28:03 0° 196° (SSW) 3,319 7.9 -35.3°
Reaches altitude 10° 17:30:43 10° 208° (SSW) 2,391 7.2 -35.7°
Maximum altitude 17:35:11 27° 266° (W) 1,500 6.4 -36.5°
Drops below altitude 10° 17:39:40 10° 324° (NW) 2,398 7.5 -37.2°
Sets 17:42:22 0° 337° (NNW) 3,331 8.2 -37.6°
